"2009-03-14 00:00:30",708821,3.139,122.2,9.64,1.173,5.681,102.3158,5.21,6.329,18.68,0,110.1,13.35,5.98,84.2
"2009-03-14 00:01:00",708822,3.564,137.8,6.74,1.154,7.323,102.3247,5.232,6.476,18.9,0,110.1,13.35,6.00,99.8
"2009-03-14 00:01:30",708823,2.694,136.4,6.352,1.244,6.961,102.3347,5.258,6.513,18.92,0,110.1,13.36,6.03,98.4
"2009-03-14 00:02:00",708824,2.159,141.3,9.88,1.449,4.634,102.3358,5.261,6.259,18.61,0,110.1,13.35,6.03,103.3
"2009-03-14 00:02:30",708825,1.417,100.9,10.36,0.395,3.115,102.3358,5.261,6.223,18.53,0,110.1,13.39,6.03,62.9
"2009-03-14 00:03:00",708826,1.809,109.7,6.161,0.218,3.174,102.3361,5.261,6.242,18.47,0,110.1,13.39,6.03,71.7
"2009-03-14 00:03:30",708827,3.092,110.3,13.68,1.194,5.822,102.3468,5.289,6.414,18.58,0,110.1,13.36,6.06,72.3
"2009-03-14 00:04:00",708828,2.134,100.7,6.188,0.705,3.901,102.3589,5.32,6.279,18.4,0,110.1,13.36,6.09,62.7
"2009-03-14 00:04:30",708829,2.406,107,8.3,1.015,4.362,102.3654,5.336,6.273,18.45,0,110.1,13.36,6.11,69.0
"2009-03-14 00:05:00",708830,5.123,138.3,8.99,0.995,7.693,102.3694,5.347,6.581,18.69,0,110.1,13.36,6.12,100.3
"2009-03-14 00:05:30",708831,4.62,137.4,11.63,1.039,8.03,102.3697,5.347,6.595,18.72,0,110.1,13.36,6.12,99.4
"2009-03-14 00:06:00",708832,2.6,150.5,9.67,1.025,4.943,102.3697,5.347,6.406,18.41,0,110.1,13.36,6.12,112.5
"2009-03-14 00:06:30",708833,2.251,142.8,4.095,0.175,3.21,102.3697,5.347,6.329,18.24,0,110.1,13.39,6.12,104.8
"2009-03-14 00:07:00",708834,2.205,150.7,3.659,0.123,3.466,102.3697,5.347,6.423,18.38,0,110.1,13.39,6.12,112.7
"2009-03-14 00:07:30",708835,3.224,155.2,7.79,1.373,5.848,102.3699,5.348,6.429,18.36,0,110.1,13.36,6.12,117.2
"2009-03-14 00:08:00",708836,0.914,134.5,11.7,0.197,3.73,102.3776,5.367,6.388,18.29,0,110.1,13.4,6.14,96.5
"2009-03-14 00:08:30",708837,1.462,105.9,11.57,0.833,4.795,102.3936,5.408,6.497,18.27,0,110.1,13.36,6.18,67.9
"2009-03-14 00:09:00",708838,3.467,115.7,8.09,0.71,8.42,102.4021,5.43,6.702,18.49,0,110.1,13.36,6.20,77.7
"2009-03-14 00:09:30",708839,2.092,120.9,12.02,1.229,5.543,102.4035,5.434,6.564,18.2,0,110.1,13.36,6.20,82.9
"2009-03-14 00:10:00",708840,1.332,124.3,6.099,0.198,3.062,102.4035,5.434,6.414,18,0,110.1,13.39,6.20,86.3
"2009-03-14 00:10:30",708841,1.476,120.8,4.07,0.304,2.72,102.4035,5.434,6.428,18,0,110.1,13.39,6.20,82.8
"2009-03-14 00:11:00",708842,1.736,123.2,2.223,0.204,2.99,102.4035,5.434,6.47,17.92,0,110.1,13.39,6.20,85.2
"2009-03-14 00:11:30",708843,2.72,129.6,8.41,1.384,5.413,102.4035,5.434,6.577,17.97,0,110.1,13.36,6.20,91.6
"2009-03-14 00:12:00",708844,2.186,121.7,7.247,1.231,4.829,102.4038,5.434,6.601,17.93,0,110.1,13.36,6.21,83.7
"2009-03-14 00:12:30",708845,2.258,131.7,10.28,1.13,5.421,102.4083,5.446,6.616,17.96,0,110.1,13.36,6.22,93.7
"2009-03-14 00:13:00",708846,3.018,123.5,8.3,1.204,6.697,102.4114,5.454,6.731,18.05,0,110.1,13.36,6.22,85.5
"2009-03-14 00:13:30",708847,3.188,128.5,6.962,1.135,7.369,102.4171,5.468,6.732,18.02,0,110.1,13.35,6.24,90.5
"2009-03-14 00:14:00",708848,1.344,108.9,7.01,0.087,3.345,102.4199,5.475,6.48,17.81,0,110.1,13.39,6.25,70.9
"2009-03-14 00:14:30",708849,1.225,130.5,5.966,0.132,2.772,102.4244,5.487,6.49,17.78,0,110.1,13.39,6.26,92.5
"2009-03-14 00:15:00",708850,2.104,139.8,3.302,0.351,2.798,102.425,5.488,6.506,17.7,0,110.1,13.39,6.26,101.8
"2009-03-14 00:15:30",708851,3.166,131.4,5.459,0.917,3.729,102.4295,5.5,6.506,17.59,0,110.1,13.36,6.27,93.4
"2009-03-14 00:16:00",708852,4.603,143.4,5.916,1.2,7.609,102.4362,5.517,6.778,17.82,0,110.1,13.36,6.29,105.4
"2009-03-14 00:16:30",708853,4.131,146.6,8.43,1.214,7.408,102.4374,5.52,6.729,17.72,0,110.1,13.36,6.29,108.6
"2009-03-14 00:17:00",708854,4.803,142.6,5.233,1.149,7.543,102.4374,5.52,6.783,17.66,0,110.1,13.36,6.29,104.6
"2009-03-14 00:17:30",708855,4.025,134.2,7.159,1.19,5.494,102.4374,5.52,6.709,17.5,0,110.1,13.36,6.29,96.2
"2009-03-14 00:18:00",708856,2.634,123.3,6.161,0.321,3.55,102.4377,5.521,6.549,17.27,0,110.1,13.4,6.29,85.3
"2009-03-14 00:18:30",708857,2.592,112.9,3.996,0.248,3.564,102.4357,5.516,6.536,17.29,0,110.1,13.4,6.29,74.9
"2009-03-14 00:19:00",708858,4.644,123.2,7.276,1.165,7.004,102.4275,5.495,6.72,17.46,0,110.1,13.36,6.27,85.2
"2009-03-14 00:19:30",708859,4.168,124.1,6.575,1.264,6.812,102.4219,5.481,6.747,17.5,0,110.1,13.36,6.25,86.1
"2009-03-14 00:20:00",708860,3.207,119.3,5.063,1.343,6.065,102.4215,5.48,6.683,17.35,0,110.1,13.36,6.25,81.3
"2009-03-14 00:20:30",708861,4.005,121.4,9.61,1.087,6.993,102.4119,5.455,6.709,17.39,0,110.1,13.36,6.23,83.4
"2009-03-14 00:21:00",708862,3.449,131.6,5.701,1.276,5.326,102.4125,5.457,6.676,17.36,0,110.1,13.36,6.23,93.6
"2009-03-14 00:21:30",708863,2.213,127.6,5.326,0.17,3.363,102.4128,5.457,6.507,17.18,0,110.1,13.4,6.23,89.6
"2009-03-14 00:22:00",708864,1.755,137.3,6.002,0.121,3.292,102.4145,5.462,6.492,17.19,0,110.1,13.37,6.23,99.3
"2009-03-14 00:22:30",708865,3.747,139.1,5.953,1.466,5.483,102.4092,5.448,6.637,17.33,0,110.1,13.37,6.22,101.1
"2009-03-14 00:23:00",708866,4.635,146.7,8.65,1.171,7.797,102.3955,5.413,6.718,17.41,0,110.1,13.37,6.18,108.7
"2009-03-14 00:23:30",708867,3.529,143.3,5.598,1.254,6.276,102.3884,5.395,6.585,17.32,0,110.1,13.37,6.17,105.3
"2009-03-14 00:24:00",708868,3.976,146.4,6.508,1.095,7.386,102.3931,5.407,6.697,17.46,0,110.1,13.37,6.18,108.4
"2009-03-14 00:24:30",708869,3.869,146.7,6.678,1.265,5.742,102.396,5.414,6.635,17.41,0,110.1,13.37,6.19,108.7
"2009-03-14 00:25:00",708870,2.986,130.9,1.924,0.105,3.299,102.3946,5.411,6.456,17.2,0,110.1,13.4,6.18,92.9
"2009-03-14 00:25:30",708871,2.729,126.7,5.613,0.213,3.614,102.3853,5.387,6.502,17.24,0,110.1,13.4,6.16,88.7
"2009-03-14 00:26:00",708872,4.358,136.1,6.828,1.215,7.485,102.3684,5.344,6.643,17.34,0,110,13.37,6.11,98.1
"2009-03-14 00:26:30",708873,3.549,132.5,6.793,1.315,5.92,102.3684,5.344,6.559,17.26,0,110.1,13.37,6.11,94.5
"2009-03-14 00:27:00",708874,3.475,130,5.907,1.148,5.42,102.3687,5.345,6.53,17.2,0,110.1,13.37,6.12,92.0
"2009-03-14 00:27:30",708875,3.992,133.9,7.202,1.261,6.974,102.3702,5.349,6.592,17.31,0,110,13.37,6.12,95.9
"2009-03-14 00:28:00",708876,2.912,118.7,5.691,1.016,4.948,102.3676,5.342,6.533,17.31,0,110,13.37,6.11,80.7
"2009-03-14 00:28:30",708877,2.414,132.2,4.129,0.163,3.309,102.3589,5.32,6.373,17.2,0,110,13.4,6.09,94.2
"2009-03-14 00:29:00",708878,2.958,137.2,8.6,1.255,5.198,102.3414,5.275,6.385,17.29,0,110,13.37,6.05,99.2
"2009-03-14 00:29:30",708879,3.089,149.7,6.791,1.258,6.595,102.3366,5.263,6.615,17.58,0,110,13.37,6.03,111.7
"2009-03-14 00:30:00",708880,1.671,135.2,6.425,0.67,4.835,102.3366,5.263,6.476,17.46,0,110,13.37,6.03,97.2
"2009-03-14 00:30:30",708881,2.402,133.6,6.356,1.207,5.147,102.3366,5.263,6.345,17.33,0,110,13.37,6.03,95.6
"2009-03-14 00:31:00",708882,2.757,137,7.453,1.258,6.061,102.3352,5.259,6.531,17.55,0,110,13.37,6.03,99.0
"2009-03-14 00:31:30",708883,2.518,130.1,8.6,1.322,5.395,102.3281,5.241,6.349,17.37,0,110,13.37,6.01,92.1
"2009-03-14 00:32:00",708884,1.402,129.3,2.176,0.051,3.441,102.3231,5.228,6.372,17.43,0,110,13.4,6.00,91.3
"2009-03-14 00:32:30",708885,1.393,120.8,5.815,0.133,3.197,102.3166,5.212,6.339,17.39,0,110,13.41,5.98,82.8
"2009-03-14 00:33:00",708886,2.319,118.1,6.413,1.216,5.649,102.3058,5.184,6.376,17.37,0,110,13.38,5.95,80.1
"2009-03-14 00:33:30",708887,2.145,126.9,7.923,1.107,5.071,102.3027,5.176,6.449,17.38,0,110,13.38,5.95,88.9
"2009-03-14 00:34:00",708888,2.698,134.6,4.261,1.262,6.226,102.3027,5.176,6.357,17.34,0,110,13.38,5.95,96.6
"2009-03-14 00:34:30",708889,2.244,135,7.399,1.219,5.544,102.3027,5.176,6.357,17.41,0,110,13.38,5.95,97.0
"2009-03-14 00:35:00",708890,2.392,139.2,8.85,1.288,5.438,102.3027,5.176,6.442,17.52,0,110,13.38,5.95,101.2
"2009-03-14 00:35:30",708891,2.054,141,4.904,1.152,4.556,102.3027,5.176,6.32,17.42,0,110,13.38,5.95,103.0
"2009-03-14 00:36:00",708892,2.368,133.7,7.04,1.161,5.384,102.3027,5.176,6.377,17.46,0,110,13.38,5.95,95.7
"2009-03-14 00:36:30",708893,2.961,133.1,7.159,1.182,5.148,102.3027,5.176,6.277,17.27,0,110,13.38,5.95,95.1
"2009-03-14 00:37:00",708894,3.172,137,7.462,1.298,5.935,102.3025,5.176,6.384,17.19,0,110,13.38,5.95,99.0
"2009-03-14 00:37:30",708895,2.347,134.6,6.057,0.853,4.274,102.2974,5.163,6.311,17.1,0,110,13.38,5.93,96.6
"2009-03-14 00:38:00",708896,3.923,144.1,8.76,1.172,6.904,102.2934,5.153,6.326,17.26,0,110,13.38,5.92,106.1
"2009-03-14 00:38:30",708897,3.059,140.6,7.531,1.156,5.339,102.274,5.103,6.312,17.38,0,110,13.39,5.87,102.6
"2009-03-14 00:39:00",708898,4.465,149.3,7.464,1.199,7.34,102.2709,5.095,6.489,17.56,0,110,13.39,5.86,111.3
"2009-03-14 00:39:30",708899,5.35,144.2,6.265,1.055,7.632,102.2715,5.096,6.392,17.62,0,110,13.38,5.87,106.2
"2009-03-14 00:40:00",708900,4.32,141.2,9.72,1.097,6.062,102.2747,5.105,6.326,17.68,0,110,13.38,5.87,103.2
"2009-03-14 00:40:30",708901,3.465,145.6,6.162,1.011,4.696,102.2761,5.108,6.205,17.57,0,110,13.38,5.88,107.6
"2009-03-14 00:41:00",708902,4.285,147.2,6.199,1.32,6.397,102.2767,5.11,6.345,17.68,0,110,13.39,5.88,109.2
"2009-03-14 00:41:30",708903,3.831,144.8,4.711,1.125,5.452,102.2745,5.104,6.318,17.69,0,110,13.39,5.87,106.8
"2009-03-14 00:42:00",708904,5.416,155,5.235,1.044,7.731,102.2704,5.094,6.321,17.68,0,110,13.39,5.86,117.0
"2009-03-14 00:42:30",708905,4.924,153.6,6.2,1.301,7.065,102.2654,5.081,6.288,17.53,0,110.1,13.39,5.85,115.6
"2009-03-14 00:43:00",708906,4.83,153.9,7.703,1.446,6.607,102.2595,5.066,6.379,17.63,0,110,13.39,5.84,115.9
"2009-03-14 00:43:30",708907,5.172,157.9,5.665,1.015,7.806,102.2642,5.078,6.252,17.52,0,110,13.39,5.85,119.9
"2009-03-14 00:44:00",708908,3.336,149,2.223,0.432,4.161,102.2594,5.066,6.238,17.53,0,110,13.39,5.84,111.0
"2009-03-14 00:44:30",708909,4.735,153.9,6.549,1.27,6.433,102.2391,5.014,6.211,17.53,0,110,13.38,5.78,115.9
"2009-03-14 00:45:00",708910,4.17,150.2,6.253,1.215,5.787,102.2349,5.003,6.208,17.54,0,110,13.38,5.77,112.2
"2009-03-14 00:45:30",708911,4.828,151.8,6.182,1.251,7.174,102.2346,5.002,6.247,17.6,0,110,13.38,5.77,113.8
"2009-03-14 00:46:00",708912,4.583,157,5.997,1.171,7.482,102.2315,4.994,6.313,17.65,0,110,13.38,5.76,119.0
"2009-03-14 00:46:30",708913,4.433,149.1,7.435,1.225,6.515,102.2171,4.958,6.147,17.51,0,110,13.38,5.73,111.1
"2009-03-14 00:47:00",708914,4.099,141.4,5.183,1.323,5.099,102.2019,4.919,6.053,17.45,0,110,13.38,5.69,103.4
"2009-03-14 00:47:30",708915,4.734,146.5,6.181,1.27,6.806,102.2019,4.919,6.269,17.7,0,110,13.38,5.69,108.5
"2009-03-14 00:48:00",708916,4.508,146.5,6.737,1.214,6.246,102.1965,4.905,6.107,17.54,0,110,13.39,5.67,108.5
"2009-03-14 00:48:30",708917,4.127,146.9,7.254,1.142,6.285,102.172,4.842,6.072,17.55,0,110,13.39,5.61,108.9
"2009-03-14 00:49:00",708918,4.396,149.9,6.956,1.168,7.458,102.168,4.832,6.19,17.73,0,110,13.39,5.60,111.9
"2009-03-14 00:49:30",708919,3.99,144.5,7.442,1.145,6.28,102.1669,4.829,6.095,17.67,0,110,13.4,5.60,106.5
"2009-03-14 00:50:00",708920,3.236,140.2,4,0.785,4.174,102.1516,4.79,5.912,17.44,0,110,13.4,5.56,102.2
"2009-03-14 00:50:30",708921,4.22,147.1,7.123,1.228,6.756,102.1341,4.746,6.132,17.69,0,110,13.4,5.51,109.1
"2009-03-14 00:51:00",708922,3.659,140.2,9.37,1.225,5.988,102.1339,4.745,6.08,17.7,0,110,13.4,5.51,102.2
"2009-03-14 00:51:30",708923,3.515,133.4,6.956,1.258,5.698,102.1192,4.708,5.935,17.66,0,110,13.4,5.48,95.4
"2009-03-14 00:52:00",708924,4.3,145.8,5.465,1.189,7.806,102.1003,4.659,6.035,17.77,0,110,13.4,5.43,107.8
"2009-03-14 00:52:30",708925,3.377,136.7,8.47,1.24,6.284,102.1003,4.659,6.001,17.77,0,110,13.4,5.43,98.7
"2009-03-14 00:53:00",708926,3.483,138,8.51,1.201,6.82,102.0777,4.602,6.006,17.79,0,110,13.4,5.37,100.0
"2009-03-14 00:53:30",708927,3.579,136.6,6.121,1.245,5.56,102.0687,4.579,5.774,17.6,0,110,13.4,5.35,98.6
"2009-03-14 00:54:00",708928,4.131,138.3,6.851,1.252,6.588,102.071,4.585,5.894,17.72,0,109.9,13.41,5.35,100.3
"2009-03-14 00:54:30",708929,3.537,141.5,5.867,1.054,5.941,102.0665,4.573,5.874,17.75,0,109.9,13.41,5.34,103.5
"2009-03-14 00:55:00",708930,4.003,143.1,8,1.39,6.879,102.0463,4.521,5.911,17.8,0,109.9,13.41,5.29,105.1
"2009-03-14 00:55:30",708931,4.126,145.2,7.661,1.385,7.149,102.0443,4.516,5.902,17.81,0,109.9,13.41,5.28,107.2
"2009-03-14 00:56:00",708932,4.482,146.3,8.15,1.209,6.998,102.0461,4.521,5.704,17.65,0,109.9,13.41,5.29,108.3
"2009-03-14 00:56:30",708933,3.13,146.5,5.869,0.63,5.098,102.0389,4.503,5.753,17.74,0,109.9,13.41,5.27,108.5
"2009-03-14 00:57:00",708934,4.794,149.8,7.303,1.067,7.708,102.026,4.47,5.804,17.85,0,109.9,13.41,5.24,111.8
"2009-03-14 00:57:30",708935,3.706,140.5,5.43,1.007,5.824,102.0241,4.465,5.707,17.75,0,109.9,13.41,5.23,102.5
"2009-03-14 00:58:00",708936,4.024,144.2,6.867,1.252,6.47,102.0044,4.414,5.644,17.71,0,109.9,13.41,5.18,106.2
"2009-03-14 00:58:30",708937,4.899,144.7,7.366,1.251,7.542,101.9993,4.401,5.697,17.83,0,109.9,13.41,5.17,106.7
"2009-03-14 00:59:00",708938,3.623,148.1,9.6,0.904,5.856,101.9863,4.368,5.696,17.88,0,109.9,13.41,5.14,110.1
"2009-03-14 00:59:30",708939,4.518,161.7,6.253,1.232,6.715,101.9685,4.323,5.572,17.82,0,109.9,13.41,5.09,123.7
"2009-03-14 01:00:00",708940,4.266,159.7,5.699,1.22,7.006,101.9626,4.308,5.653,17.95,0,109.9,13.41,5.07,121.7
"2009-03-14 01:00:30",708941,4.321,165.5,6.529,1.191,6.263,101.9369,4.242,5.477,17.79,0,109.9,13.41,5.01,127.5
"2009-03-14 01:01:00",708942,3.658,167.6,4.59,1.041,5.311,101.9315,4.228,5.542,17.86,0,109.9,13.41,5.00,129.6
"2009-03-14 01:01:30",708943,4.91,176.1,7.663,1.234,7.252,101.9174,4.192,5.42,17.81,0,109.9,13.41,4.96,138.1
"2009-03-14 01:02:00",708944,3.756,169.1,6.491,1.14,5.958,101.8982,4.143,5.537,17.97,0,109.9,13.41,4.91,131.1
"2009-03-14 01:02:30",708945,5.017,163.8,6.959,1.113,7.518,101.8923,4.128,5.403,17.92,0,109.9,13.41,4.89,125.8
"2009-03-14 01:03:00",708946,5.041,160.5,5.98,1.193,7.841,101.8731,4.079,5.531,18.05,0,109.9,13.41,4.85,122.5
"2009-03-14 01:03:30",708947,4.696,164.6,6.876,1.119,7.052,101.8643,4.057,5.375,17.95,0,109.9,13.41,4.82,126.6
"2009-03-14 01:04:00",708948,4.704,167.5,5.931,1.235,7.327,101.8565,4.037,5.426,18.06,0,109.9,13.42,4.80,129.5
"2009-03-14 01:04:30",708949,3.462,153.1,4.59,0.831,4.612,101.839,3.992,5.292,17.98,0,109.9,13.42,4.76,115.1
"2009-03-14 01:05:00",708950,4.038,154.1,7.605,1.238,5.637,101.8405,3.996,5.159,17.86,0,109.9,13.42,4.76,116.1
"2009-03-14 01:05:30",708951,4.013,159,7.759,1.304,6.772,101.8369,3.987,5.314,18.07,0,109.9,13.42,4.75,121.0
"2009-03-14 01:06:00",708952,4.105,162.4,6.723,1.229,7.868,101.8192,3.942,5.358,18.16,0,109.9,13.43,4.71,124.4
"2009-03-14 01:06:30",708953,3.648,165.1,5.776,1.223,6.848,101.8199,3.943,5.316,18.14,0,109.9,13.43,4.71,127.1
"2009-03-14 01:07:00",708954,4.289,163.3,6.969,1.195,6.402,101.8196,3.943,5.164,17.95,0,109.9,13.43,4.71,125.3
"2009-03-14 01:07:30",708955,3.766,155,6.867,1.355,5.665,101.8101,3.918,5.15,18.01,0,109.9,13.43,4.68,117.0
"2009-03-14 01:08:00",708956,3.05,153.1,3.976,0.653,4.055,101.7989,3.89,4.996,17.93,0,109.8,13.44,4.66,115.1
"2009-03-14 01:08:30",708957,2.849,156.8,2.556,0.291,4.685,101.7963,3.883,5.082,18.08,0,109.8,13.44,4.65,118.8
"2009-03-14 01:09:00",708958,4.93,163.4,6.188,0.875,8.37,101.7847,3.854,5.176,18.19,0,109.8,13.44,4.62,125.4
"2009-03-14 01:09:30",708959,4.487,162,6.025,1.109,8.11,101.7678,3.81,5.191,18.23,0,109.8,13.44,4.58,124.0
"2009-03-14 01:10:00",708960,3.969,163.8,6.809,1.258,6.964,101.7627,3.797,5.1,18.21,0,109.8,13.44,4.56,125.8
"2009-03-14 01:10:30",708961,3.538,165.3,8.33,1.164,6.013,101.7627,3.797,5.028,18.16,0,109.8,13.44,4.56,127.3
"2009-03-14 01:11:00",708962,2.51,161.7,1.569,0.093,3.724,101.7534,3.774,4.866,18.02,0,109.8,13.47,4.54,123.7
"2009-03-14 01:11:30",708963,2.35,163.8,0.985,0.064,3.787,101.7297,3.713,4.865,17.95,0,109.8,13.47,4.48,125.8
"2009-03-14 01:12:00",708964,3.561,168.4,6.518,1.275,6.665,101.7288,3.711,4.958,18.07,0,109.8,13.45,4.48,130.4
"2009-03-14 01:12:30",708965,4.254,171,6.385,1.145,8.46,101.7265,3.705,5.097,18.27,0,109.8,13.45,4.47,133.0
"2009-03-14 01:13:00",708966,4.085,168.8,6.339,1.168,8.07,101.7091,3.66,5.04,18.26,0,109.8,13.45,4.43,130.8
"2009-03-14 01:13:30",708967,3.749,167.4,5.967,1.268,6.498,101.6984,3.633,4.973,18.23,0,109.8,13.45,4.40,129.4
"2009-03-14 01:14:00",708968,3.511,165.6,7.097,1.202,5.479,101.7035,3.646,4.796,18.05,0,109.8,13.45,4.41,127.6
"2009-03-14 01:14:30",708969,2.804,154.6,1.618,0.164,3.65,101.7082,3.658,4.74,18,0,109.8,13.48,4.42,116.6
"2009-03-14 01:15:00",708970,2.977,153.6,1.369,0.07,3.965,101.7026,3.644,4.771,18.13,0,109.8,13.49,4.41,115.6
"2009-03-14 01:15:30",708971,4.843,161.4,5.604,1.182,8.12,101.6871,3.604,4.915,18.31,0,109.8,13.45,4.37,123.4
"2009-03-14 01:16:00",708972,5.343,164.6,4.038,0.785,9.3,101.6903,3.613,5.02,18.46,0,109.8,13.45,4.38,126.6
"2009-03-14 01:16:30",708973,5.474,163.9,3.014,0.691,8.81,101.6946,3.624,4.987,18.49,0,109.8,13.45,4.39,125.9
"2009-03-14 01:17:00",708974,4.232,159.6,4.334,1.238,6.022,101.6907,3.613,4.719,18.31,0,109.8,13.45,4.38,121.6
"2009-03-14 01:17:30",708975,3.216,156.3,0.44,0.036,3.787,101.6743,3.572,4.693,18.37,0,109.8,13.48,4.34,118.3
"2009-03-14 01:18:00",708976,3.677,153,2.084,0.187,3.972,101.6619,3.54,4.682,18.53,0,109.8,13.48,4.30,115.0
"2009-03-14 01:18:30",708977,5.002,162.7,6.581,1.238,7.391,101.6616,3.539,4.776,19.07,0,109.8,13.45,4.30,124.7
"2009-03-14 01:19:00",708978,5.819,156.3,4.013,0.778,9.32,101.6616,3.539,4.948,19.41,0,109.8,13.45,4.30,118.3
"2009-03-14 01:19:30",708979,5.827,155.7,2.692,0.55,9.02,101.6599,3.535,4.883,19.52,0,109.8,13.45,4.30,117.7
"2009-03-14 01:20:00",708980,5.499,154,5.176,0.935,8.19,101.637,3.476,4.739,19.29,0,109.8,13.45,4.24,116.0
"2009-03-14 01:20:30",708981,2.936,147.2,2.177,0.193,3.947,101.6279,3.453,4.572,19.11,0,109.8,13.49,4.22,109.2
"2009-03-14 01:21:00",708982,3.244,147,2.11,0.107,3.878,101.6277,3.453,4.544,19.05,0,109.8,13.49,4.22,109.0
"2009-03-14 01:21:30",708983,3.768,149.4,4.068,0.806,5.325,101.6277,3.453,4.682,19.21,0,109.7,13.46,4.22,111.4
"2009-03-14 01:22:00",708984,5.725,155.2,4.734,1.021,8.84,101.6277,3.453,4.796,19.56,0,109.8,13.46,4.22,117.2
"2009-03-14 01:22:30",708985,5.966,156.8,3.718,0.675,9.5,101.6277,3.453,4.82,19.65,0,109.8,13.47,4.22,118.8
"2009-03-14 01:23:00",708986,5.878,158.1,4.29,0.381,8.69,101.6234,3.442,4.76,19.42,0,109.8,13.47,4.21,120.1
"2009-03-14 01:23:30",708987,3.403,147.7,2.089,0.116,4.124,101.6036,3.391,4.572,19.12,0,109.8,13.5,4.16,109.7
"2009-03-14 01:24:00",708988,3.166,147.6,1.756,0.113,3.921,101.5943,3.367,4.488,19.12,0,109.8,13.5,4.13,109.6
"2009-03-14 01:24:30",708989,4.295,152.8,5.961,1.278,6.449,101.5938,3.366,4.573,19.14,0,109.8,13.47,4.13,114.8
"2009-03-14 01:25:00",708990,3.798,148.8,8.11,0.987,6.483,101.5938,3.366,4.614,19.26,0,109.8,13.47,4.13,110.8
"2009-03-14 01:25:30",708991,5.241,161.7,3.206,0.766,9.55,101.5966,3.373,4.77,19.53,0,109.8,13.47,4.14,123.7
"2009-03-14 01:26:00",708992,5.294,162.2,4.244,0.579,8.74,101.6027,3.389,4.71,19.64,0,109.8,13.47,4.15,124.2
"2009-03-14 01:26:30",708993,4.256,157.4,6.309,1.233,5.911,101.607,3.4,4.58,19.64,0,109.7,13.47,4.16,119.4
"2009-03-14 01:27:00",708994,3.017,152.7,1.229,0.057,3.678,101.609,3.405,4.433,19.34,0,109.7,13.51,4.17,114.7
"2009-03-14 01:27:30",708995,3.569,154.6,4.48,1.01,4.484,101.6083,3.403,4.426,19.21,0,109.7,13.47,4.17,116.6
"2009-03-14 01:28:00",708996,3.887,154.5,5.936,1.071,5.837,101.6095,3.406,4.607,19.34,0,109.7,13.48,4.17,116.5
"2009-03-14 01:28:30",708997,5.713,165.1,4.169,0.685,9.45,101.6013,3.385,4.712,19.51,0,109.7,13.48,4.15,127.1
"2009-03-14 01:29:00",708998,5.757,168.2,3.98,0.565,9.28,101.596,3.372,4.728,19.69,0,109.7,13.48,4.14,130.2
"2009-03-14 01:29:30",708999,4.896,165.4,7.597,1.205,6.937,101.5943,3.367,4.656,20.03,0,109.7,13.48,4.13,127.4
"2009-03-14 01:30:00",709000,4.242,159.8,5.376,1.136,5.186,101.5943,3.367,4.454,20.09,0,109.7,13.48,4.13,121.8
"2009-03-14 01:30:30",709001,3.853,157.4,1.534,0.471,3.823,101.5943,3.367,4.401,20.12,0,109.7,13.48,4.13,119.4
"2009-03-14 01:31:00",709002,4.631,159.5,5.297,1.218,5.555,101.5943,3.367,4.517,20.29,0,109.7,13.48,4.13,121.5
"2009-03-14 01:31:30",709003,6.015,164.5,6.236,1.062,8.24,101.5943,3.367,4.701,20.55,0,109.7,13.48,4.13,126.5
"2009-03-14 01:32:00",709004,6.417,167.4,4.175,0.58,9.36,101.5943,3.367,4.683,20.56,0,109.7,13.48,4.13,129.4
"2009-03-14 01:32:30",709005,6.03,166,5.12,0.931,8.25,101.5943,3.367,4.618,20.49,0,109.7,13.48,4.13,128.0
"2009-03-14 01:33:00",709006,5.016,159.2,6.735,1.282,5.746,101.594,3.367,4.428,20.34,0,109.7,13.47,4.13,121.2
"2009-03-14 01:33:30",709007,4.089,151.4,2.408,0.648,3.801,101.5935,3.365,4.369,20.29,0,109.7,13.48,4.13,113.4
"2009-03-14 01:34:00",709008,3.973,151.8,3.149,0.441,4.821,101.5929,3.364,4.501,20.53,0,109.7,13.48,4.13,113.8
"2009-03-14 01:34:30",709009,5.756,161.2,6.001,1.126,8.15,101.5909,3.359,4.551,20.61,0,109.7,13.48,4.12,123.2
"2009-03-14 01:35:00",709010,6.181,162.5,4.21,0.864,9.16,101.5858,3.346,4.687,20.78,0,109.7,13.48,4.11,124.5
"2009-03-14 01:35:30",709011,5.931,164.6,5.483,1.112,7.993,101.5835,3.34,4.611,20.73,0,109.7,13.48,4.10,126.6
"2009-03-14 01:36:00",709012,5.189,163.5,6.045,1.2,6.37,101.5844,3.342,4.567,20.72,0,109.7,13.48,4.11,125.5
"2009-03-14 01:36:30",709013,4.293,157.2,2.439,0.464,4.15,101.5847,3.343,4.363,20.51,0,109.7,13.48,4.11,119.2
"2009-03-14 01:37:00",709014,4.852,158.8,4.426,0.911,4.88,101.5853,3.344,4.421,20.46,0,109.7,13.48,4.11,120.8
"2009-03-14 01:37:30",709015,6.114,166.2,5.738,1.11,8.41,101.5824,3.337,4.584,20.58,0,109.7,13.48,4.10,128.2
"2009-03-14 01:38:00",709016,6.421,169.5,4.519,0.89,8.76,101.5844,3.342,4.707,20.45,0,109.7,13.48,4.11,131.5
"2009-03-14 01:38:30",709017,5.93,169.4,6.127,1.149,8.08,101.5861,3.347,4.617,20.35,0,109.7,13.48,4.11,131.4
"2009-03-14 01:39:00",709018,5.445,167.7,6.817,1.235,6.751,101.591,3.359,4.558,20.3,0,109.7,13.48,4.12,129.7
"2009-03-14 01:39:30",709019,4.165,158.8,1.858,0.066,3.892,101.5938,3.366,4.349,20.1,0,109.7,13.52,4.13,120.8
"2009-03-14 01:40:00",709020,4.384,158.5,4.014,0.755,4.883,101.5981,3.377,4.493,20.24,0,109.7,13.49,4.14,120.5
"2009-03-14 01:40:30",709021,5.738,164.1,6.331,1.199,8.1,101.599,3.379,4.596,20.37,0,109.7,13.49,4.14,126.1
"2009-03-14 01:41:00",709022,6.352,170.2,3.831,0.681,9.15,101.6007,3.384,4.653,20.46,0,109.7,13.5,4.15,132.2
"2009-03-14 01:41:30",709023,5.961,163.7,5.987,1.047,7.974,101.603,3.39,4.618,20.32,0,109.7,13.49,4.15,125.7
"2009-03-14 01:42:00",709024,5.516,164.9,6.594,1.235,6.647,101.6013,3.385,4.531,20.26,0,109.7,13.49,4.15,126.9
"2009-03-14 01:42:30",709025,4.378,157,0.819,0.072,3.982,101.6036,3.391,4.379,19.97,0,109.7,13.52,4.16,119.0
"2009-03-14 01:43:00",709026,5.13,162.3,6.32,1.18,5.647,101.6048,3.394,4.534,20.1,0,109.7,13.5,4.16,124.3
"2009-03-14 01:43:30",709027,5.816,164.1,5.945,1.146,7.665,101.6085,3.404,4.617,20.13,0,109.7,13.5,4.17,126.1
"2009-03-14 01:44:00",709028,6.482,166.5,4.694,0.774,8.89,101.6063,3.398,4.677,20.26,0,109.7,13.5,4.16,128.5
"2009-03-14 01:44:30",709029,6.117,167.6,5.539,1.089,8.2,101.6074,3.401,4.584,20.28,0,109.7,13.5,4.16,129.6
"2009-03-14 01:45:00",709030,5.627,164.4,5.901,1.263,6.548,101.6037,3.392,4.543,20.2,0,109.7,13.5,4.16,126.4
"2009-03-14 01:45:30",709031,4.03,158.1,1.175,0.05,3.987,101.6069,3.4,4.376,19.97,0,109.7,13.53,4.16,120.1
"2009-03-14 01:46:00",709032,4.605,161.5,5.444,1.151,5.515,101.6038,3.392,4.524,20.05,0,109.7,13.5,4.16,123.5
"2009-03-14 01:46:30",709033,5.58,165.8,5.747,1.166,7.906,101.6023,3.388,4.562,20.1,0,109.7,13.5,4.15,127.8
"2009-03-14 01:47:00",709034,5.365,165.2,6.458,1.134,7.975,101.5984,3.378,4.658,20.3,0,109.7,13.5,4.14,127.2
"2009-03-14 01:47:30",709035,5.529,168.5,5.774,1.042,7.979,101.5974,3.375,4.593,20.23,0,109.7,13.5,4.14,130.5
"2009-03-14 01:48:00",709036,4.836,165.1,6.436,1.241,6.389,101.5937,3.366,4.549,20.12,0,109.7,13.5,4.13,127.1
"2009-03-14 01:48:30",709037,3.649,158.6,1.308,0.046,3.9,101.5948,3.369,4.394,20.04,0,109.7,13.53,4.13,120.6
"2009-03-14 01:49:00",709038,4.345,165.3,5.791,1.065,5.272,101.5948,3.369,4.477,20.08,0,109.7,13.5,4.13,127.3
"2009-03-14 01:49:30",709039,5.458,171.6,5.9,1.143,7.863,101.5948,3.369,4.6,20.1,0,109.7,13.5,4.13,133.6
"2009-03-14 01:50:00",709040,5.481,172.5,6.294,1.196,7.757,101.5948,3.369,4.652,20.17,0,109.7,13.5,4.13,134.5